sat.trackr.live / text

‹ back to catalog

STARLINK-32124

NORAD 60298 · 2024-132W

PAYLOAD ACTIVE UNKNOWN

§ Identity

Operator
Country
US
Launch date
2024-07-28
Launch site
AFETR
Launch vehicle
Mass (kg)
RCS (m²)

Purposes: comms

External: N2YO · Heavens-Above · Gunter

§ Orbital elements

Epoch: 2026-05-25T01:18:22.491936Z

Period
94.01 min
Inclination
53.1613°
Eccentricity
0.0001166
Mean motion
15.31700546 rev/d
Perigee alt
469.9 km
Apogee alt
471.5 km
Semi-major
6,848.9 km
B*
8.8284e-6
RAAN
57.6227°
Arg perigee
92.4293°
Mean anomaly
267.6842°
Rev number
10,325

§ Raw data

STARLINK-321241 60298U 24132W   26145.05442699 -.00000091  00000+0  88284-5 0  99992 60298  53.1613  57.6227 0001166  92.4293 267.6842 15.31700546103256

JSON: /api/v1/satellites/60298 · /tle

For live sub-satellite position, see the globe view (requires WebGL).

§ Visibility from observer

Set your observer location to see the next 7 days of passes ≥ 10°. The values pass through the URL so the page stays shareable.

No JS? Fill the form by hand. The geolocation button needs JavaScript.